TRA25E EHEH-LEAL

Flight info

Callsign TRA25E
Flight time N/A
Altitude 35000
Route WOOD5J WOODY N872 MEDIL KOVIN DUCRA UM728 RESMI UN857 DISAK DIRMO GUERE EVPOK AGN ANETO POSSY XIMPE RIMES N860 VLC VLC3L
Aircraft A21N/M-SDE2E3FGHIRWXY/LB1

Departure

Time 2026-05-05 15:33
Airport Eindhoven Airport (EHEH)

Arrival

Time N/A
Airport Alicante-Elche Miguel Hernández Airport (LEAL)
Time Latitude Longitude Altitude Speed Heading
2026-05-05 15:04 51.45756 5.38929 70 ft 0 kts 125°
2026-05-05 15:13 51.45757 5.38929 76 ft 0 kts 125°
2026-05-05 15:14 51.45757 5.38928 76 ft 0 kts 125°
2026-05-05 15:14 51.45765 5.38910 76 ft 2 kts 125°
2026-05-05 15:15 51.45775 5.38887 64 ft 2 kts 125°
2026-05-05 15:15 51.45779 5.38878 65 ft 1 kts 125°
2026-05-05 15:15 51.45788 5.38856 68 ft 3 kts 125°
2026-05-05 15:15 51.45792 5.38849 68 ft 0 kts 125°
2026-05-05 15:16 51.45796 5.38838 65 ft 0 kts 125°
2026-05-05 15:17 51.45781 5.38832 66 ft 5 kts 200°
2026-05-05 15:17 51.45795 5.38775 70 ft 9 kts 306°
2026-05-05 15:17 51.45836 5.38681 69 ft 9 kts 304°
2026-05-05 15:18 51.45846 5.38657 74 ft 0 kts 304°
2026-05-05 15:19 51.45867 5.38608 68 ft 6 kts 304°
2026-05-05 15:19 51.45920 5.38486 70 ft 14 kts 305°
2026-05-05 15:20 51.45986 5.38339 70 ft 14 kts 305°
2026-05-05 15:20 51.45963 5.38228 76 ft 13 kts 213°
2026-05-05 15:20 51.45861 5.38123 71 ft 22 kts 213°
2026-05-05 15:20 51.45725 5.37971 75 ft 27 kts 215°
2026-05-05 15:21 51.45559 5.37781 84 ft 32 kts 214°
2026-05-05 15:21 51.45359 5.37560 81 ft 38 kts 214°
2026-05-05 15:21 51.45185 5.37367 67 ft 23 kts 215°
2026-05-05 15:21 51.45072 5.37238 83 ft 16 kts 214°
2026-05-05 15:22 51.44990 5.37146 84 ft 14 kts 215°
2026-05-05 15:22 51.44910 5.37056 86 ft 14 kts 215°
2026-05-05 15:22 51.44826 5.36962 88 ft 18 kts 214°
2026-05-05 15:22 51.44699 5.36820 83 ft 24 kts 214°
2026-05-05 15:23 51.44616 5.36726 67 ft 20 kts 216°
2026-05-05 15:23 51.44475 5.36569 74 ft 22 kts 214°
2026-05-05 15:23 51.44324 5.36398 86 ft 26 kts 215°
2026-05-05 15:23 51.44200 5.36263 84 ft 17 kts 214°
2026-05-05 15:24 51.44126 5.36180 85 ft 9 kts 215°
2026-05-05 15:24 51.44094 5.36144 84 ft 7 kts 215°
2026-05-05 15:24 51.44065 5.36111 85 ft 2 kts 214°
2026-05-05 15:24 51.44062 5.36107 84 ft 0 kts 215°
2026-05-05 15:29 51.44061 5.36106 84 ft 1 kts 215°
2026-05-05 15:29 51.44031 5.36075 83 ft 5 kts 208°
2026-05-05 15:29 51.44010 5.36068 84 ft 5 kts 188°
2026-05-05 15:30 51.43975 5.36099 80 ft 7 kts 134°
2026-05-05 15:30 51.43936 5.36187 79 ft 8 kts 124°
2026-05-05 15:30 51.43937 5.36244 80 ft 5 kts 65°
2026-05-05 15:30 51.43961 5.36275 84 ft 1 kts 34°
2026-05-05 15:31 51.43961 5.36276 84 ft 0 kts 34°
2026-05-05 15:32 51.43999 5.36317 85 ft 29 kts 34°
2026-05-05 15:33 51.44347 5.36705 71 ft 93 kts 35°
2026-05-05 15:33 51.45040 5.37477 105 ft 146 kts 35°
2026-05-05 15:33 51.45885 5.38450 741 ft 153 kts 35°
2026-05-05 15:33 51.46776 5.39470 1516 ft 158 kts 34°
2026-05-05 15:34 51.47712 5.40495 2207 ft 171 kts 34°
2026-05-05 15:34 51.48759 5.41639 2556 ft 200 kts 34°
2026-05-05 15:34 51.50125 5.42637 2776 ft 232 kts
2026-05-05 15:34 51.51745 5.42224 3493 ft 249 kts 335°
2026-05-05 15:35 51.53093 5.40395 4278 ft 262 kts 305°
2026-05-05 15:35 51.53721 5.37616 5144 ft 271 kts 276°
2026-05-05 15:35 51.53478 5.34593 5577 ft 279 kts 248°
2026-05-05 15:35 51.52532 5.31854 5887 ft 279 kts 238°
2026-05-05 15:36 51.51563 5.29149 6179 ft 279 kts 244°
2026-05-05 15:36 51.50827 5.26293 6460 ft 277 kts 252°
2026-05-05 15:36 51.50456 5.23264 6754 ft 279 kts 270°
2026-05-05 15:36 51.50595 5.20143 7337 ft 280 kts 278°
2026-05-05 15:37 51.50902 5.17043 8155 ft 283 kts 281°
2026-05-05 15:37 51.51299 5.13927 8971 ft 287 kts 283°
2026-05-05 15:37 51.51751 5.10812 9762 ft 291 kts 284°
2026-05-05 15:37 51.52250 5.07622 10365 ft 301 kts 284°
2026-05-05 15:38 51.52802 5.04241 10631 ft 323 kts 285°
2026-05-05 15:38 51.53405 5.00645 10941 ft 342 kts 285°
2026-05-05 15:38 51.54048 4.96861 11298 ft 359 kts 286°
2026-05-05 15:38 51.54723 4.92908 11686 ft 374 kts 286°
2026-05-05 15:39 51.55183 4.88718 12120 ft 387 kts 272°
2026-05-05 15:39 51.55094 4.84374 12818 ft 392 kts 266°
2026-05-05 15:39 51.54815 4.79999 13501 ft 394 kts 264°
2026-05-05 15:39 51.54431 4.75620 13951 ft 401 kts 261°
2026-05-05 15:40 51.53957 4.71192 14550 ft 403 kts 259°
2026-05-05 15:40 51.53431 4.66754 15192 ft 406 kts 258°
2026-05-05 15:40 51.52864 4.62276 15686 ft 413 kts 258°
2026-05-05 15:40 51.52270 4.57774 16204 ft 418 kts 257°
2026-05-05 15:41 51.51651 4.53201 16805 ft 420 kts 257°
2026-05-05 15:41 51.50932 4.48664 17634 ft 416 kts 248°
2026-05-05 15:41 51.49520 4.44626 18285 ft 416 kts 230°
2026-05-05 15:41 51.47378 4.41544 18798 ft 415 kts 211°
2026-05-05 15:42 51.44825 4.39374 19316 ft 416 kts 204°
2026-05-05 15:42 51.42175 4.37463 19868 ft 418 kts 203°
2026-05-05 15:42 51.39506 4.35581 20394 ft 419 kts 203°
2026-05-05 15:42 51.36823 4.33692 20859 ft 423 kts 203°
2026-05-05 15:43 51.34162 4.31790 21370 ft 424 kts 204°
2026-05-05 15:43 51.31473 4.29816 21833 ft 427 kts 204°
2026-05-05 15:43 51.28769 4.27795 22307 ft 430 kts 205°
2026-05-05 15:43 51.26063 4.25751 22766 ft 432 kts 205°
2026-05-05 15:44 51.23341 4.23679 23220 ft 435 kts 205°
2026-05-05 15:44 51.20599 4.21580 23631 ft 437 kts 205°
2026-05-05 15:44 51.17812 4.19616 24011 ft 439 kts 202°
2026-05-05 15:44 51.14958 4.17826 24400 ft 441 kts 200°
2026-05-05 15:45 51.12073 4.16122 24782 ft 443 kts 199°
2026-05-05 15:45 51.09160 4.14459 25161 ft 445 kts 199°
2026-05-05 15:45 51.06228 4.12819 25535 ft 447 kts 199°
2026-05-05 15:45 51.03277 4.11189 25905 ft 449 kts 198°
2026-05-05 15:46 51.00354 4.09585 26296 ft 451 kts 198°
2026-05-05 15:46 50.97393 4.07966 26786 ft 450 kts 198°
2026-05-05 15:46 50.94441 4.06354 27321 ft 448 kts 198°
2026-05-05 15:46 50.91502 4.04741 27849 ft 446 kts 199°
2026-05-05 15:47 50.88595 4.03054 28372 ft 444 kts 199°
2026-05-05 15:47 50.86685 4.01899 28722 ft 443 kts 200°
2026-05-05 15:47 50.82848 3.99520 29420 ft 441 kts 200°
2026-05-05 15:47 50.80001 3.97724 29918 ft 440 kts 200°
2026-05-05 15:48 50.77164 3.95923 30339 ft 439 kts 200°
2026-05-05 15:48 50.74343 3.94125 30769 ft 437 kts 200°
2026-05-05 15:48 50.71528 3.92327 31184 ft 436 kts 200°
2026-05-05 15:48 50.68716 3.90532 31597 ft 434 kts 200°
2026-05-05 15:49 50.65916 3.88744 32005 ft 433 kts 200°
2026-05-05 15:49 50.63158 3.86983 32405 ft 432 kts 200°
2026-05-05 15:49 50.60378 3.85202 32805 ft 431 kts 200°
2026-05-05 15:49 50.57582 3.83536 33195 ft 429 kts 197°
2026-05-05 15:50 50.54758 3.82048 33607 ft 427 kts 196°
2026-05-05 15:50 50.51930 3.80629 33973 ft 426 kts 195°
2026-05-05 15:50 50.49102 3.79238 34259 ft 426 kts 195°
2026-05-05 15:50 50.46260 3.77852 34526 ft 427 kts 195°
2026-05-05 15:51 50.43420 3.76468 34760 ft 424 kts 196°
2026-05-05 15:51 50.40622 3.75100 34870 ft 420 kts 196°
2026-05-05 15:51 50.37824 3.73728 34921 ft 423 kts 196°
2026-05-05 15:52 50.32185 3.70950 34957 ft 429 kts 196°
2026-05-05 15:52 50.26494 3.68131 34954 ft 427 kts 196°
2026-05-05 15:53 50.20843 3.65325 34952 ft 425 kts 196°
2026-05-05 15:53 49.99083 3.54526 34938 ft 428 kts 196°
2026-05-05 15:54 49.74894 3.42605 34933 ft 431 kts 195°
2026-05-05 15:54 49.69171 3.39804 34932 ft 432 kts 195°
2026-05-05 15:55 49.63438 3.37005 34928 ft 432 kts 195°
2026-05-05 15:55 49.57691 3.34205 34925 ft 432 kts 195°
2026-05-05 15:56 49.51949 3.31415 34925 ft 433 kts 195°
2026-05-05 15:56 49.39335 3.25309 34925 ft 433 kts 195°
2026-05-05 15:57 49.33568 3.22528 34920 ft 434 kts 195°
2026-05-05 15:57 49.27126 3.19430 34930 ft 436 kts 195°
2026-05-05 15:58 49.21376 3.16672 34921 ft 435 kts 195°
2026-05-05 15:58 49.15587 3.13902 34916 ft 436 kts 195°
2026-05-05 15:59 49.09763 3.11122 34912 ft 438 kts 195°
2026-05-05 15:59 49.03948 3.08353 34913 ft 438 kts 195°
2026-05-05 16:00 48.98168 3.05606 34912 ft 437 kts 195°
2026-05-05 16:00 48.92338 3.02843 34908 ft 439 kts 195°
2026-05-05 16:01 48.86498 3.00082 34920 ft 439 kts 195°
2026-05-05 16:01 48.80654 2.97325 34907 ft 439 kts 195°
2026-05-05 16:02 48.74818 2.94578 34902 ft 439 kts 195°
2026-05-05 16:02 48.68996 2.91848 34908 ft 441 kts 195°
2026-05-05 16:03 48.63131 2.89103 34902 ft 441 kts 195°
2026-05-05 16:03 48.57270 2.86365 34898 ft 440 kts 195°
2026-05-05 16:04 48.51419 2.83643 34898 ft 441 kts 195°
2026-05-05 16:04 48.45547 2.80915 34899 ft 442 kts 195°
2026-05-05 16:05 48.39711 2.78213 34902 ft 441 kts 195°
2026-05-05 16:05 48.33844 2.75501 34910 ft 441 kts 195°
2026-05-05 16:06 48.27973 2.72795 34892 ft 441 kts 195°
2026-05-05 16:06 48.22108 2.70096 34896 ft 440 kts 195°
2026-05-05 16:07 48.16243 2.67406 34896 ft 439 kts 195°
2026-05-05 16:07 48.10438 2.64749 34909 ft 439 kts 195°
2026-05-05 16:08 48.04603 2.62085 34916 ft 438 kts 195°
2026-05-05 16:08 47.98779 2.59429 34913 ft 438 kts 195°
2026-05-05 16:09 47.92943 2.56775 34905 ft 437 kts 195°
2026-05-05 16:09 47.87124 2.54135 34909 ft 437 kts 195°
2026-05-05 16:10 47.81298 2.51500 34909 ft 437 kts 195°
2026-05-05 16:10 47.75479 2.48874 34826 ft 437 kts 196°
2026-05-05 16:11 47.69680 2.46263 34808 ft 434 kts 196°
2026-05-05 16:12 47.58113 2.41073 34804 ft 436 kts 196°
2026-05-05 16:13 47.44620 2.35042 34808 ft 434 kts 196°
2026-05-05 16:13 47.37888 2.32045 34806 ft 434 kts 196°
2026-05-05 16:14 47.27286 2.27343 34825 ft 432 kts 196°
2026-05-05 16:15 46.90677 2.16923 34845 ft 430 kts 184°
2026-05-05 16:16 46.43552 2.11753 34864 ft 429 kts 185°
2026-05-05 16:17 46.19855 2.08246 34906 ft 427 kts 205°
2026-05-05 16:17 46.09687 1.99215 34887 ft 428 kts 213°
2026-05-05 16:18 45.97389 1.87088 34892 ft 428 kts 214°
2026-05-05 16:19 45.90086 1.79821 34899 ft 426 kts 214°
2026-05-05 16:19 45.82772 1.72544 34905 ft 426 kts 214°
2026-05-05 16:20 45.73057 1.62900 34910 ft 425 kts 214°
2026-05-05 16:22 45.44851 1.37582 34928 ft 425 kts 197°
2026-05-05 16:23 44.98989 1.22027 34928 ft 422 kts 194°
2026-05-05 16:23 44.64874 1.11119 34926 ft 421 kts 194°
2026-05-05 16:24 44.42022 1.03899 34929 ft 420 kts 194°
2026-05-05 16:25 44.07781 0.93186 34949 ft 420 kts 194°
2026-05-05 16:25 43.73561 0.83234 34951 ft 418 kts 193°
2026-05-05 16:26 43.27828 0.71118 34966 ft 417 kts 193°
2026-05-05 16:27 43.05177 0.65178 34976 ft 417 kts 194°
2026-05-05 16:27 42.82547 0.59283 34948 ft 413 kts 194°
2026-05-05 16:28 42.60811 0.50176 34947 ft 407 kts 206°
2026-05-05 16:28 42.40215 0.37235 34942 ft 408 kts 207°
2026-05-05 16:29 42.19643 0.24231 34903 ft 408 kts 207°
2026-05-05 16:29 41.98025 0.14878 34898 ft 415 kts 192°
2026-05-05 16:30 41.90475 0.13581 34896 ft 415 kts 191°
2026-05-05 16:30 41.84758 0.12662 34892 ft 416 kts 191°
2026-05-05 16:31 41.79009 0.11767 34893 ft 415 kts 191°
2026-05-05 16:31 41.73267 0.10889 34893 ft 415 kts 191°
2026-05-05 16:32 41.67531 0.10020 34900 ft 415 kts 192°
2026-05-05 16:32 41.61783 0.09156 34892 ft 415 kts 192°
2026-05-05 16:33 41.56087 0.08304 34894 ft 414 kts 192°
2026-05-05 16:33 41.50353 0.07450 34897 ft 414 kts 192°
2026-05-05 16:34 41.44626 0.06596 34895 ft 414 kts 192°
2026-05-05 16:34 41.38891 0.05744 34890 ft 413 kts 192°
2026-05-05 16:35 41.33203 0.04902 34894 ft 414 kts 192°
2026-05-05 16:35 41.27488 0.04059 34892 ft 413 kts 192°
2026-05-05 16:36 41.21763 0.03214 34896 ft 412 kts 192°
2026-05-05 16:36 41.16058 0.02372 34894 ft 412 kts 192°
2026-05-05 16:37 41.10342 0.01528 34902 ft 413 kts 192°
2026-05-05 16:37 41.04669 0.00702 34907 ft 412 kts 192°
2026-05-05 16:38 40.98974 -0.00123 34913 ft 410 kts 192°
2026-05-05 16:38 40.93296 -0.00946 34910 ft 410 kts 192°
2026-05-05 16:39 40.87606 -0.01774 34918 ft 411 kts 192°
2026-05-05 16:39 40.81951 -0.02596 34916 ft 410 kts 192°
2026-05-05 16:40 40.76283 -0.03415 34916 ft 409 kts 192°
2026-05-05 16:40 40.70615 -0.04238 34917 ft 410 kts 192°
2026-05-05 16:41 40.64929 -0.05064 34918 ft 410 kts 192°
2026-05-05 16:41 40.59272 -0.05908 34922 ft 406 kts 195°
2026-05-05 16:42 40.53771 -0.07493 34800 ft 404 kts 200°
2026-05-05 16:42 40.51097 -0.08428 34444 ft 402 kts 201°
2026-05-05 16:42 40.48395 -0.09418 33728 ft 401 kts 201°
2026-05-05 16:43 40.45712 -0.10431 32691 ft 401 kts 202°
2026-05-05 16:43 40.43018 -0.11465 31629 ft 403 kts 202°
2026-05-05 16:43 40.40321 -0.12512 30724 ft 403 kts 202°
2026-05-05 16:43 40.37689 -0.13540 29950 ft 393 kts 202°
2026-05-05 16:44 40.35069 -0.14570 28607 ft 395 kts 202°
2026-05-05 16:44 40.32466 -0.15604 27922 ft 386 kts 202°
2026-05-05 16:44 40.29907 -0.16620 27137 ft 382 kts 202°
2026-05-05 16:44 40.27375 -0.17624 26337 ft 378 kts 202°
2026-05-05 16:45 40.24863 -0.18615 25570 ft 375 kts 202°
2026-05-05 16:45 40.22380 -0.19593 24836 ft 371 kts 202°
2026-05-05 16:45 40.19943 -0.20550 24116 ft 367 kts 202°
2026-05-05 16:45 40.17505 -0.21508 23397 ft 364 kts 202°
2026-05-05 16:46 40.15092 -0.22456 22586 ft 361 kts 202°
2026-05-05 16:46 40.12699 -0.23397 21789 ft 357 kts 202°
2026-05-05 16:46 40.10291 -0.24347 21341 ft 363 kts 202°
2026-05-05 16:46 40.07903 -0.25284 21086 ft 355 kts 202°
2026-05-05 16:47 40.05552 -0.26199 20991 ft 351 kts 202°
2026-05-05 16:47 40.03201 -0.27118 20940 ft 352 kts 202°
2026-05-05 16:47 40.00848 -0.28038 20921 ft 353 kts 202°
2026-05-05 16:47 39.98490 -0.28960 20905 ft 353 kts 202°
2026-05-05 16:48 39.96142 -0.29875 20897 ft 352 kts 202°
2026-05-05 16:48 39.93790 -0.30792 20887 ft 352 kts 202°
2026-05-05 16:48 39.91470 -0.31699 20887 ft 353 kts 202°
2026-05-05 16:48 39.89112 -0.32621 20904 ft 354 kts 201°
2026-05-05 16:49 39.85546 -0.34000 20888 ft 351 kts 202°
2026-05-05 16:49 39.81700 -0.35491 20882 ft 352 kts 202°
2026-05-05 16:49 39.79352 -0.36402 20886 ft 352 kts 202°
2026-05-05 16:49 39.77002 -0.37315 20885 ft 352 kts 202°
2026-05-05 16:50 39.74659 -0.38222 20883 ft 351 kts 202°
2026-05-05 16:50 39.72317 -0.39130 20878 ft 351 kts 202°
2026-05-05 16:50 39.69979 -0.40034 20878 ft 351 kts 202°
2026-05-05 16:50 39.67693 -0.40913 20882 ft 336 kts 202°
2026-05-05 16:51 39.65482 -0.41757 20896 ft 330 kts 202°
2026-05-05 16:51 39.63272 -0.42611 20886 ft 332 kts 203°
2026-05-05 16:51 39.61051 -0.43474 20833 ft 333 kts 202°
2026-05-05 16:51 39.58830 -0.44338 20472 ft 331 kts 202°
2026-05-05 16:52 39.56631 -0.45191 19806 ft 330 kts 202°
2026-05-05 16:52 39.54436 -0.46042 19165 ft 328 kts 202°
2026-05-05 16:52 39.52260 -0.46879 18550 ft 325 kts 202°
2026-05-05 16:52 39.50097 -0.47692 17918 ft 323 kts 202°
2026-05-05 16:53 39.47938 -0.48489 17188 ft 322 kts 201°
2026-05-05 16:53 39.45786 -0.49278 16515 ft 320 kts 201°
2026-05-05 16:53 39.43644 -0.50055 15821 ft 320 kts 201°
2026-05-05 16:53 39.41491 -0.50833 15344 ft 323 kts 200°
2026-05-05 16:54 39.39364 -0.51597 15088 ft 318 kts 200°
2026-05-05 16:54 39.37239 -0.52355 14971 ft 316 kts 200°
2026-05-05 16:54 39.35110 -0.53113 14922 ft 319 kts 200°
2026-05-05 16:54 39.32965 -0.53876 14898 ft 318 kts 200°
2026-05-05 16:55 39.30830 -0.54634 14891 ft 318 kts 200°
2026-05-05 16:55 39.28700 -0.55391 14887 ft 317 kts 200°
2026-05-05 16:55 39.26567 -0.56149 14878 ft 317 kts 200°
2026-05-05 16:55 39.24434 -0.56908 14871 ft 318 kts 200°
2026-05-05 16:56 39.22297 -0.57665 14870 ft 317 kts 200°
2026-05-05 16:56 39.20178 -0.58415 14865 ft 316 kts 200°
2026-05-05 16:56 39.18049 -0.59168 14861 ft 317 kts 200°
2026-05-05 16:56 39.15918 -0.59923 14861 ft 318 kts 200°
2026-05-05 16:57 39.13783 -0.60678 14858 ft 318 kts 200°
2026-05-05 16:57 39.11655 -0.61431 14855 ft 316 kts 200°
2026-05-05 16:57 39.09561 -0.62171 14878 ft 316 kts 200°
2026-05-05 16:57 39.07437 -0.62918 14854 ft 315 kts 201°
2026-05-05 16:58 39.05318 -0.63666 14877 ft 317 kts 200°
2026-05-05 16:58 39.03187 -0.64423 14888 ft 317 kts 200°
2026-05-05 16:58 39.01062 -0.65175 14888 ft 315 kts 200°
2026-05-05 16:58 38.98943 -0.65923 14891 ft 316 kts 200°
2026-05-05 16:59 38.96824 -0.66669 14896 ft 316 kts 200°
2026-05-05 16:59 38.94714 -0.67411 14904 ft 314 kts 200°
2026-05-05 16:59 38.92601 -0.68156 14894 ft 316 kts 200°
2026-05-05 16:59 38.90488 -0.68899 14623 ft 314 kts 200°
2026-05-05 17:00 38.88380 -0.69643 14038 ft 313 kts 200°
2026-05-05 17:00 38.86280 -0.70384 13366 ft 313 kts 200°
2026-05-05 17:00 38.84213 -0.71114 12758 ft 311 kts 200°
2026-05-05 17:00 38.82127 -0.71844 12122 ft 310 kts 200°
2026-05-05 17:01 38.80053 -0.72571 11501 ft 308 kts 200°
2026-05-05 17:01 38.77991 -0.73293 11030 ft 302 kts 200°
2026-05-05 17:01 38.76008 -0.73982 10792 ft 288 kts 200°
2026-05-05 17:01 38.74122 -0.74632 10595 ft 274 kts 200°
2026-05-05 17:02 38.72319 -0.75255 10401 ft 261 kts 200°
2026-05-05 17:02 38.70628 -0.75840 10195 ft 250 kts 200°
2026-05-05 17:02 38.68922 -0.76439 10039 ft 269 kts 200°
2026-05-05 17:02 38.67084 -0.77101 9960 ft 272 kts 200°
2026-05-05 17:03 38.65278 -0.77740 9926 ft 268 kts 200°
2026-05-05 17:03 38.63468 -0.78373 9910 ft 270 kts 200°
2026-05-05 17:03 38.61652 -0.79004 9901 ft 270 kts 200°
2026-05-05 17:03 38.59842 -0.79632 9902 ft 269 kts 200°
2026-05-05 17:04 38.58048 -0.80256 9902 ft 266 kts 200°
2026-05-05 17:04 38.56266 -0.80941 9901 ft 267 kts 206°
2026-05-05 17:04 38.55151 -0.81599 9905 ft 265 kts 213°
2026-05-05 17:04 38.53612 -0.82855 9904 ft 260 kts 221°
2026-05-05 17:05 38.51801 -0.84844 9899 ft 259 kts 227°
2026-05-05 17:05 38.50928 -0.85930 9898 ft 259 kts 227°
2026-05-05 17:05 38.49633 -0.87543 9842 ft 257 kts 227°
2026-05-05 17:05 38.48364 -0.89068 9781 ft 244 kts 226°
2026-05-05 17:06 38.47117 -0.90479 9421 ft 236 kts 223°
2026-05-05 17:06 38.45837 -0.91757 8746 ft 237 kts 220°
2026-05-05 17:06 38.44511 -0.92915 8086 ft 225 kts 217°
2026-05-05 17:06 38.43163 -0.93935 7065 ft 227 kts 213°
2026-05-05 17:07 38.41727 -0.94869 6188 ft 234 kts 210°
2026-05-05 17:07 38.40264 -0.95713 5654 ft 226 kts 207°
2026-05-05 17:07 38.38819 -0.96495 5275 ft 224 kts 205°
2026-05-05 17:07 38.37397 -0.97183 5119 ft 213 kts 202°
2026-05-05 17:08 38.35984 -0.97753 5098 ft 215 kts 198°
2026-05-05 17:08 38.34466 -0.97761 5089 ft 226 kts 166°
2026-05-05 17:08 38.33165 -0.96653 5031 ft 231 kts 131°
2026-05-05 17:08 38.32524 -0.94786 5012 ft 229 kts 96°
2026-05-05 17:09 38.32555 -0.92858 5012 ft 210 kts 86°
2026-05-05 17:09 38.32555 -0.90989 4986 ft 212 kts 93°
2026-05-05 17:09 38.32357 -0.87321 4775 ft 211 kts 95°
2026-05-05 17:09 38.32226 -0.85442 4476 ft 207 kts 96°
2026-05-05 17:10 38.32052 -0.83649 4207 ft 202 kts 99°
2026-05-05 17:10 38.31829 -0.81894 3894 ft 202 kts 102°
2026-05-05 17:10 38.31587 -0.80162 3664 ft 198 kts 102°
2026-05-05 17:10 38.31347 -0.78451 3397 ft 195 kts 102°
2026-05-05 17:11 38.31115 -0.76780 3145 ft 189 kts 102°
2026-05-05 17:11 38.30931 -0.75449 2967 ft 191 kts 102°